Weather in Krutikha

Russia / Altai Krai     53°57′54″N   81°12′30″E
temp.,
°C
wind,
m/s
gust,
m/s
humid.,
%
clouds,
%
prec.,
mm/h
press.,
hPa
HPBL,
m
11 may, tue
tue1101:00+11nne51354100 0.0 1017447
04:00+9nne411634 0.0 1016308
07:00+8nne4116741 0.0 1017390
10:00+14nne610440 0.0 10171458
13:00+17ne7103481 0.0 10162740
16:00+19nne792999 0.0 10163007
19:00+17nne693868 0.0 10171522
22:00+12nne7136374 0.4 1019611
12 may, wed
wed1201:00+10n5137082 0.4 1019404
04:00+9n410775 0.0 1019287
07:00+9n410745 0.0 1020293
10:00+15n585095 0.0 1019687
13:00+19n553742 0.0 10192498
16:00+19nnw4434100 0.0 10182343
19:00+18nw443551 0.0 10181819
22:00+13nw1144100 0.0 101810
13 may, thu
thu1301:00+11w224992 0.0 101711
04:00+10wnw3959100 0.0 1016231
07:00+10wsw4973100 0.1 1017457
10:00+10sse3676100 0.6 1016281
13:00+12sse337363 1.0 1015551
16:00+14nw456588 1.2 10151092
19:00+14nnw576879 1.7 10151006
22:00+10n5127777 0.1 1016414
14 may, fri
fri1401:00+10nnw267979 0.1 1017192
04:00+7nw22840 0.0 101735
07:00+8wnw276291 0.0 1018169
10:00+12nnw57535 0.0 1018826
13:00+11nnw59525 0.1 10201459
16:00+13n79275 0.0 10221696
19:00+13n573163 0.0 10241619
22:00+8nnw234664 0.0 102638
15 may, sat
sat1501:00+7wnw224851 0.0 102711
04:00+6wsw3447100 0.0 102680
07:00+9wsw4104693 0.0 1025303
10:00+13wsw5103721 0.0 1024717
13:00+19w793114 0.0 10221318
16:00+22w693061 0.0 10201667
19:00+23nw464211 0.0 10161769
22:00